Location: Brâznic
(45.9167°N, 22.6500°E)
Time: 23:11:49
(UTC+00:00)

Daily predictions for brighter satellites

Satellite Brightness Start Highest point End
(mag) Time Altitude Azimuth Time Altitude Azimuth Time Altitude Azimuth
Cosmos 1503 Rocket 4.1 15:08:19 10° S 15:13:29 65° ESE 15:18:38 10° NNE
CZ-4C R/B 3.0 15:07:22 10° NW 15:14:24 79° NE 15:23:06 10° SE
Cosmos 2228 4.0 15:10:19 10° SSW 15:14:25 48° WNW 15:18:33 10° N
Cosmos 1606 Rocket 4.4 15:10:54 10° SSE 15:14:46 31° E 15:18:39 10° NNE
NOSS 2-3 (D) 4.2 15:13:08 10° S 15:16:25 30° ESE 15:19:44 10° ENE
NOSS 2-3 (E) 4.0 15:13:40 10° S 15:17:01 33° ESE 15:20:24 10° NE
BREEZE-M DEB (TANK) 1.4 15:17:05 10° SW 15:18:37 39° SSE 15:20:36 10° ENE
BREEZE M DEB (TANK) 3.9 15:04:03 10° WNW 15:19:41 89° SSW 15:23:41 10° ESE
Thor Agena Rocket 3.7 15:14:49 10° SE 15:19:51 54° ENE 15:24:52 10° N
USA 238 DEB 4.3 15:15:42 10° S 15:21:00 33° ESE 15:26:43 10° NE
USA 238 4.3 15:15:50 10° S 15:21:07 33° ESE 15:26:49 10° NE
UNK 4.2 15:17:44 10° NNE 15:22:04 40° E 15:26:20 10° S
Lacrosse 5 rocket 3.1 15:19:44 10° NW 15:22:05 16° N 15:24:25 10° NNE
Cosmos 1544 Rocket 3.9 15:19:40 10° SSW 15:24:03 69° W 15:28:30 10° N
Cosmos 1354 Rocket 4.2 15:19:20 10° S 15:24:28 57° ESE 15:29:36 10° NNE
Cosmos 1484 Rocket 2.5 15:21:41 10° SSE 15:25:11 88° W 15:28:42 10° NNW
Cosmos 1777 Rocket 4.1 15:21:33 10° SSW 15:26:48 84° WNW 15:32:04 10° NNE
Cosmos 1743 2.5 15:26:08 10° NNW 15:29:23 72° W 15:32:35 10° S
IGS 5A 3.3 15:26:44 10° SSE 15:30:40 85° ENE 15:34:40 10° NNW
Gbstr 26 Del rocket 2.8 15:26:33 10° WSW 15:30:49 86° SSE 15:34:27 11° ENE
MOS 1 Rocket 4.1 15:26:28 10° SE 15:30:57 34° ENE 15:35:37 10° N
USA 215 4.1 15:25:22 10° NE 15:31:13 36° N 15:37:05 10° WNW
Cosmos 2151 2.9 15:30:03 10° N 15:34:15 89° E 15:38:24 10° S
Cosmos 1900 4.4 15:29:12 10° NW 15:34:16 85° WSW 15:39:12 10° SSE
Cosmos 1726 Rocket 4.2 15:32:58 10° SSE 15:37:17 40° E 15:41:33 10° NNE
BREEZE-M DEB (TANK) 2.8 15:34:40 10° WNW 15:37:30 59° NNE 15:45:37 10° E
IRIDIUM 104 4.3 15:32:39 10° N 15:37:54 74° E 15:43:06 10° S
Meteor 1-20 Rocket 4.1 15:32:31 10° N 15:38:00 86° E 15:43:29 10° S
SMAP 3.0 15:35:44 10° SSE 15:40:20 66° ENE 15:44:58 10° N
Cosmos 2297 Rocket 3.1 15:34:51 10° NW 15:40:22 54° WSW 15:45:51 10° S
GEOS 3 Rocket 3.8 15:38:22 10° NE 15:43:42 62° SE 15:49:00 10° SSW
Landsat 7 3.8 15:39:57 10° SSE 15:44:29 57° ENE 15:49:04 10° N
Cosmos 2084 Rocket 4.4 15:40:38 10° NW 15:44:44 50° WSW 15:48:47 10° SSE
NOSS 7 (H) 4.2 15:42:06 10° NW 15:45:02 79° SW 15:48:20 10° SE
Cosmos 1602 Rocket 4.0 15:42:07 10° NNW 15:46:28 66° W 15:50:45 10° S
IRIDIUM 114 4.3 15:41:47 10° N 15:47:02 88° E 15:52:16 10° S
Cosmos 1805 4.4 15:45:41 10° NNE 15:47:54 16° ENE 15:50:05 10° ESE
YAOGAN 1 3.8 15:46:04 10° ESE 15:49:03 19° ENE 15:52:01 10° NNE
SL-16 R/B 3.0 15:45:13 10° N 15:51:22 63° WNW 15:57:26 10° SSW
Cosmos 990 Rocket 3.9 15:47:03 10° SSW 15:52:11 83° ESE 15:57:22 10° NNE
COSMOS 2455 4.3 15:49:58 10° SE 15:53:35 17° ESE 15:55:26 15° E
Okean 1-7 Rocket 3.6 15:49:33 10° N 15:53:57 81° W 15:58:18 10° S
BREEZE M DEB (TANK) 1.4 15:53:31 10° WSW 15:56:01 80° NNW 15:56:59 26° ENE
CZ-2D R/B 4.4 15:54:30 10° ESE 15:57:56 25° ENE 16:01:21 10° N
Cosmos 1461 4.3 15:55:05 10° WSW 15:58:33 30° NW 16:02:05 10° NNE
SKYMED 2 4.4 15:58:01 14° NE 16:01:07 30° E 16:04:56 10° SSE
CORIOLIS 4.3 15:56:15 10° S 16:01:34 76° WSW 16:06:56 10° NNW
Cosmos 1980 Rocket 2.3 15:57:13 10° S 16:02:41 55° ESE 16:07:35 13° NE
Cosmos 1844 Rocket 4.0 15:59:22 10° N 16:03:11 18° NE 16:04:08 17° NE
Cosmos 2219 3.5 15:58:05 10° NNW 16:03:34 45° NE 16:09:03 10° SE
Okean 1 4.2 16:00:50 10° SE 16:03:43 23° E 16:04:06 22° E
Aureole 1 Rocket 3.5 16:01:49 10° S 16:06:09 53° ESE 16:11:23 11° NNE
SJ-6F 4.3 16:04:23 10° SSE 16:08:18 59° ENE 16:12:17 10° N
NOSS 3-2 (C) 4.0 16:05:33 10° WSW 16:10:28 44° NW 16:15:55 12° NNE
Cosmos 1953 Rocket 3.5 16:06:47 10° N 16:11:13 66° E 16:15:38 10° SSE
ARIANE 5 R/B 2.6 16:06:32 10° SSE 16:11:36 84° WSW 16:16:47 10° NNW
Cosmos 2263 Rocket 2.1 16:06:24 10° NNW 16:12:06 72° ENE 16:17:46 10° SSE
IRS-1C 4.2 16:07:04 10° SSE 16:12:23 85° WSW 16:17:45 10° NNW
PSLV R/B 4.3 16:13:46 26° ENE 16:13:46 26° ENE 16:17:08 10° N
Meteor 1-5 Rocket 4.1 16:11:10 10° N 16:16:34 90° ENE 16:22:05 10° S
Cosmos 1680 Rocket 4.3 16:14:22 10° N 16:18:50 28° ENE 16:20:04 25° E
Cosmos 1825 Rocket 4.1 16:14:48 10° NNW 16:19:04 60° W 16:23:17 10° S
Cosmos 2369 4.1 16:14:53 10° S 16:20:14 43° ESE 16:23:23 23° NE
Meteor 2-10 4.1 16:16:42 10° N 16:22:06 65° ENE 16:27:39 10° SSE
COSMO-SKYMED 1 3.1 16:22:48 31° E 16:23:20 32° E 16:27:02 10° SSE
SAR-Lupe-4 4.2 16:20:58 10° S 16:24:27 56° W 16:27:58 10° NNW
Cosmos 1076 Rocket 3.6 16:21:57 10° NNW 16:26:17 79° W 16:30:35 10° S
Cosmos 1655 Rocket 4.0 16:20:39 10° N 16:26:54 86° W 16:33:07 10° S
SOZ 4.2 16:24:40 10° W 16:26:59 44° NNW 16:26:59 44° NNW
USA 81 3.9 16:26:26 10° N 16:31:43 74° E 16:36:58 10° S
Cosmos 2227 Rocket 3.2 16:26:37 10° NW 16:32:01 48° WSW 16:37:24 10° S
Cosmos 44 Rocket 4.5 16:28:59 10° NNW 16:33:16 26° NE 16:33:16 26° NE
SPOT 1/Viking Rocket 3.4 16:30:15 10° SSE 16:35:27 78° ENE 16:40:40 10° N
Cosmos 1697 Rocket 3.9 16:37:12 10° WSW 16:42:23 38° NW 16:47:32 10° NNE
CENTAUR R/B 4.4 16:39:51 10° NW 16:44:50 21° N 16:48:31 15° NNE
Cosmos 2058 Rocket 3.1 16:41:19 10° S 16:45:47 84° W 16:49:15 17° N
NOSS 2-3 (C) 4.1 16:43:28 10° WSW 16:46:44 39° NW 16:47:48 31° N
Cosmos 1538 Rocket 4.5 16:42:43 10° NNW 16:47:57 63° WSW 16:53:11 10° S
Cosmos 2333 Rocket 3.9 16:45:47 10° SSE 16:47:30 16° SE 16:47:30 16° SE
Meteor 2-11 Rocket 4.4 16:45:01 10° N 16:51:06 57° ENE 16:57:07 10° SSE
Meteor 1-14 Rocket 4.4 16:51:14 10° N 16:56:29 45° ENE 16:56:29 45° ENE
MINOTAUR IV R/B 4.4 16:53:54 10° NNW 16:58:13 69° NE 16:58:13 69° NE
EXPRESS MD2 3.3 16:56:52 10° WSW 16:59:01 56° W 16:59:01 56° W
Lacrosse 5 rocket 3.4 16:57:47 10° NNW 16:58:51 14° NNW 16:58:51 14° NNW
Cosmos 2322 Rocket 4.4 16:57:08 10° SSE 16:57:11 10° SSE 16:57:11 10° SSE
Resurs 1-3 3.6 17:01:29 10° S 17:05:47 78° WSW 17:10:06 10° NNW
Cosmos-2242 3.8 17:04:55 10° SSW 17:09:02 50° WNW 17:11:23 23° NNW
Nadezhda 2 Rocket 4.5 17:04:31 10° N 17:10:40 80° W 17:16:45 10° S
USA 238 DEB 4.0 17:05:31 10° WSW 17:11:32 55° NW 17:14:48 29° NNE
USA 238 4.0 17:05:37 10° WSW 17:11:39 56° NW 17:14:55 30° NNE
Spot 4 Rocket 4.2 17:07:16 10° S 17:12:21 70° WSW 17:17:29 10° NNW
USA 215 4.0 17:12:07 34° NNE 17:13:16 36° N 17:19:08 10° NW
Cosmos 1898 Rocket 4.0 17:09:03 10° SW 17:14:06 56° WNW 17:16:31 30° N
Cosmos 1844 4.5 17:09:05 10° NNW 17:12:43 35° NNE 17:12:43 35° NNE
Cosmos 1553 Rocket 4.0 17:08:51 10° SSW 17:15:01 80° W 17:21:21 10° N
S3M 4.3 17:09:28 10° SSE 17:14:31 47° ESE 17:14:31 47° ESE
Gbstr 26 Del rocket 4.1 17:13:44 10° WNW 17:16:29 31° NW 17:16:29 31° NW
IRAS Rocket 4.2 17:13:03 10° SSE 17:18:32 78° WSW 17:24:02 10° NNW
Cosmos 2082 4.1 17:15:03 10° NNW 17:20:41 64° WSW 17:26:20 10° S
Cosmos 2112 Rocket 4.4 17:15:32 10° NNW 17:19:27 50° N 17:19:27 50° N
YAOGAN 1 3.5 17:20:27 10° S 17:24:33 47° W 17:28:41 10° NNW
Meteor 2-6 Rocket 4.2 17:22:14 10° S 17:27:55 86° W 17:29:21 53° N
Cosmos 923 Rocket 4.4 17:24:20 10° NNW 17:29:27 61° WSW 17:32:38 23° S
Cosmos 1937 Rocket 4.0 17:24:34 10° SW 17:29:39 56° WNW 17:30:51 45° NNW
Cosmos 2237 4.2 17:24:36 10° SSW 17:30:21 82° WNW 17:30:55 72° N
SL-16 R/B 2.8 17:25:35 10° S 17:29:26 42° S 17:29:26 42° S
Cosmos 1745 Rocket 3.8 17:26:27 10° N 17:32:39 83° E 17:38:46 10° S
SL-24 R/B - RUBIN 2 4.1 17:29:58 10° SW 17:34:52 69° WSW 17:34:52 69° WSW
COSMOS 2455 2.7 17:32:38 10° SSW 17:38:36 87° W 17:38:36 87° W
BREEZE-M DEB (TANK) 3.8 17:24:19 10° WNW 17:43:26 84° SSW 17:44:17 70° SE
Cosmos 1980 Rocket 3.9 17:42:11 10° WSW 17:46:59 28° NW 17:49:21 21° NNW
Cosmos 1844 Rocket 3.5 17:42:14 10° NNW 17:45:49 41° NNW 17:45:49 41° NNW
Cosmos 2333 Rocket 4.4 18:28:09 10° SW 18:29:34 18° SW 18:29:34 18° SW
